Regional Weather Roundup
Issued by NWS Lake Charles, LA

Home | Current Version | Previous Version | Text Only | Print | Product List | Glossary On
Versions: 1 2 3 4 5 6 7 8 9 10 11 12 13 14 15 16 17 18 19 20 21 22 23 24 25 26 27 28 29 30 31 32 33 34 35 36 37 38 39 40 41 42 43 44 45 46 47 48 49 50
000
ASUS44 KLCH 051310
RWRLCH
RWRLCH
REGIONAL WEATHER ROUNDUP
NATIONAL WEATHER SERVICE LAKE CHARLES LA
800 AM CDT SUN JUL 05 2015

Note: "fair" indicates few or no clouds below 12,000 feet with no
significant weather and/or obstructions to visibility.


ACROSS SOUTHEAST TEXAS

CITY           SKY/WX    TMP DP  RH WIND       PRES   REMARKS
BEAUMONT       MOSUNNY   82  80  94 S6        30.07S
BEAUMONT CITY    N/A     80  78  94 S5        30.08S
ORANGE         MOSUNNY   82  82 100 S3        30.09S
JASPER         SUNNY     79  78  96 CALM      30.11S FOG
$$

ACROSS CENTRAL LOUISIANA

CITY           SKY/WX    TMP DP  RH WIND       PRES   REMARKS
LEESVILLE      CLOUDY    75  75 100 S5        30.09S FOG
FULLERTON      FOG       79  75  87 S5        30.07S VSB 1
ALEXANDRIA INT PTSUNNY   76  75  97 S3        30.07S
ESLER FIELD    CLOUDY    77  74  90 CALM      30.09S FOG
DERIDDER       PTSUNNY   76  75  95 CALM      30.11R
OAKDALE        PTSUNNY   77  75  96 CALM      30.10R FOG
OPELOUSAS        N/A     77  76  96 CALM      30.10S
$$

ACROSS SOUTHWEST AND SOUTH CENTRAL LOUISIANA

CITY           SKY/WX    TMP DP  RH WIND       PRES   REMARKS
SULPHUR        MOSUNNY   82  80  91 S3        30.09S
LAKE CHARLES   MOSUNNY   81  78  91 S3        30.08S
CHENNAULT INT  NOT AVBL
CAMERON PHI    SUNNY     84  77  79 S12       30.11S
DEQUINCY         N/A     77  77 100 CALM      30.09S
JENNINGS         N/A     80  77  92 CALM      30.09S
LAFAYETTE      CLOUDY    79  76  90 CALM      30.10R
NEW IBERIA     NOT AVBL
ABBEVILLE        N/A     79  77  94 CALM      30.11R
PATTERSON      CLOUDY    81  75  83 S3        30.12S
SALT POINT       N/A     84  77  79 CALM      30.09S
$$

SELECTED SITES ACROSS THE REGION

CITY           SKY/WX    TMP DP  RH WIND       PRES   REMARKS
HOUSTON BUSH   PTSUNNY   80  78  94 SE6       30.07R
HOUSTON HOBBY  PTSUNNY   81  79  94 S5        30.06R
GALVESTON      PTSUNNY   84  78  82 S12       30.08R
COLLEGE STAT   CLOUDY    80  77  90 S7        30.07R
CONROE         PTSUNNY   79  76  90 SE5       30.08R FOG
HUNTSVILLE     MOSUNNY   80  77  90 S9        30.07R
LUFKIN         CLOUDY    79  75  87 S3        30.08S FOG
SHREVEPORT     CLOUDY    78  74  87 SW8       30.07R
MONROE         CLOUDY    73  73 100 SW6       30.09R
NATCHEZ MS     PTSUNNY   73  70  88 SE3       30.11S
BATON ROUGE    CLOUDY    77  75  93 CALM      30.11S
N.O. INTL ARPT CLOUDY    81  75  82 SW3       30.11R
SLIDELL        LGT RAIN  79  77  94 CALM      30.10S
$$

MARINE REPORTS

STATION/POSITION TIME  TEMP    WIND        PRES    VSBY  WAVE
                       AIR SEA DIR/SP/G                  HT/PER
                 (UTC) (F)     (DEG/KT/KT) (MB)    (MI)  (FT/S)
BUOY 30 S HIGH I 1250   84 83  190/ 14/ 16 1017.8R         3/ 6
SEA RIM ST PARK  1200   83     180/  8/ 10 1018.9R
PORT ARTHUR      1200      83  180/  3/  4 1018.6R
SABINE PASS N    1200   83 84  200/  6/  9 1018.6R
TEXAS POINT      NOT AVBL
CALCASIEU PASS   1200   84 84  220/ 13/ 15   N/A
LK CHARLES BEACH 1200   79 85                N/A
MARSH ISLAND     1200   85     200/  8/ 10   N/A           0
FRESH WATER LOCK 1200   84 85  170/ 10/ 13 1019.0R
AMERADA PASS     1200   82 83  180/  2/  3 1019.3R
$$



USA.gov is the U.S. government's official web portal to all federal, state and local government web resources and services.